Location: Strawberry
(45.6646°N, 111.9596°W)
Time: 22:36:26
(UTC+00:00)

Courier 1B Rocket - Pass Details

Date: 13 October 2022
Orbit: 920 x 1202 km, 28.3° (Epoch: 03 December)

Event Time Altitude Azimuth Distance (km) Brightness Sun altitude
Rises 02:40:28 0° 248° (WSW) 3,910 9.1 -20.5°
Reaches altitude 10° 02:45:56 10° 215° (SW) 2,867 7.7 -21.5°
Maximum altitude 02:47:37 11° 201° (SSW) 2,770 7.5 -21.8°
Drops below altitude 10° 02:49:17 10° 187° (S) 2,813 7.3 -22.0°
Enters shadow 02:51:43 - 168° (SSE) 3,107 7.4 -22.5°
Sets 02:54:28 0° 153° (SSE) 3,683 - -22.9°
